Regional Weather Roundup
Issued by NWS

Home | Current Version | Previous Version | Graphics & Text | Print | Product List | Glossary On
Versions: 1 2 3 4 5 6 7 8 9 10 11 12 13 14 15 16 17 18 19 20 21 22 23 24 25 26 27 28 29 30 31 32 33 34 35 36 37 38 39 40 41 42 43 44 45 46 47 48 49 50
000
ASUS45 KCYS 211010
RWRWY

WYOMING REGIONAL WEATHER ROUNDUP
NATIONAL WEATHER SERVICE CHEYENNE WY
300 AM MST TUE FEB 21 2017

NOTE:  "FAIR" INDICATES FEW OR NO CLOUDS BELOW 12,000 FEET
WITH NO SIGNIFICANT WEATHER AND/OR OBSTRUCTIONS TO VISIBILITY.

WYZ001-211100-
YELLOWSTONE NATIONAL PARK

CITY           SKY/WX    TMP DP  RH WIND       PRES   REMARKS
LK YELLOWSTONE   N/A     30  30 100 CALM      29.87S
W YELLOWSTONE  NOT AVBL

$$
WYZ002>013-054>058-071-098>099-211100-
NORTHERN WYOMING

CITY           SKY/WX    TMP DP  RH WIND       PRES   REMARKS
JACKSON        MOCLDY    34  34 100 S14       29.89F WCI  24
CODY           FAIR      41  32  70 NE8       29.78F
GREYBULL       CLOUDY    41  32  70 S6        29.80R
WORLAND        FAIR      41  33  73 S14       29.79F
SHERIDAN       FAIR      48  28  46 SE9       29.72F
BUFFALO        FAIR      43  26  51 SW8       29.78R
GILLETTE       FAIR      48  32  53 SW38G49   29.75F
HULETT         FAIR      48  32  53 S14G22    29.81F
NEWCASTLE      FAIR      46  30  53 SE8       29.88F

$$
WYZ014>020-022>026-101>103-211100-
CENTRAL WYOMING

CITY           SKY/WX    TMP DP  RH WIND       PRES   REMARKS
BIG PINEY      LGT RAIN  36  32  85 SW21      29.99R WCI  25
PINEDALE       DRIZZLE   36  34  93 SW17      30.00R WCI  25
DUBOIS         LGT SNOW  32  32 100 S3        29.87S
LANDER         LGT RAIN  45  33  63 S35G45    29.87S
RIVERTON       FAIR      42  32  67 SW28G37   29.86S
CASPER         FAIR      44  31  60 SW36G46   29.91R
DOUGLAS        FAIR      47  30  51 W13       29.90S

$$
WYZ021-027>030-104>119-211100-
SOUTHERN WYOMING

CITY           SKY/WX    TMP DP  RH WIND       PRES   REMARKS
EVANSTON       MOCLDY    38  31  76 SW30G38   30.03S WCI  26
KEMMERER         N/A     37  32  81 SW18G25   30.03S WCI  27
FORT BRIDGER   FAIR      42  32  69 SW16G23   30.08S
ROCK SPRINGS   FAIR      39  29  67 SW16      30.04R WCI  30
DIXON            N/A     42  31  65 S15G30    30.17F
RAWLINS        FAIR      39  30  70 W17G32    30.07R WCI  30
SARATOGA       FAIR      41  30  65 SW23G31   30.08S
LARAMIE        FAIR      40  26  57 SW31G45   30.04R WCI  28
CHEYENNE       FAIR      47  23  38 W28G40    29.97F
TORRINGTON     FAIR      34  20  56 S5        29.92F WCI  30
PINE BLUFFS    FAIR      27  18  69 W13       29.99F WCI  16

$$



USA.gov is the U.S. government's official web portal to all federal, state and local government web resources and services.